TimeEST,TemperatureF,Dew PointF,Humidity,Sea Level PressureIn,VisibilityMPH,Wind Direction,Wind SpeedMPH,Gust SpeedMPH,PrecipitationIn,Events,Conditions,WindDirDegrees,DateUTC
12:15 AM,36.7,30.7,79,29.97,10.0,SSW,3.5,-,N/A,,Clear,210,2013-02-06 05:15:00
12:35 AM,37.4,31.3,79,29.97,10.0,Calm,Calm,-,N/A,,Clear,0,2013-02-06 05:35:00
12:55 AM,37.9,30.9,76,29.97,10.0,SW,5.8,-,N/A,,Clear,220,2013-02-06 05:55:00
1:15 AM,37.4,30.0,75,29.97,10.0,SW,4.6,-,N/A,,Clear,220,2013-02-06 06:15:00
1:35 AM,37.8,30.4,75,29.97,10.0,SW,5.8,-,N/A,,Scattered Clouds,230,2013-02-06 06:35:00
1:55 AM,36.7,29.8,76,29.97,10.0,SSW,5.8,-,N/A,,Overcast,210,2013-02-06 06:55:00
2:15 AM,38.8,30.6,72,29.97,10.0,Calm,Calm,-,N/A,,Overcast,0,2013-02-06 07:15:00
2:35 AM,34.2,30.0,85,29.97,10.0,WSW,3.5,-,N/A,,Scattered Clouds,240,2013-02-06 07:35:00
2:55 AM,37.9,30.7,75,29.97,10.0,Calm,Calm,-,N/A,,Clear,0,2013-02-06 07:55:00
3:15 AM,40.1,30.2,68,29.97,10.0,Calm,Calm,-,N/A,,Clear,0,2013-02-06 08:15:00
3:35 AM,36.3,29.7,77,29.97,10.0,WSW,3.5,-,N/A,,Clear,240,2013-02-06 08:35:00
3:55 AM,38.1,30.4,74,29.98,10.0,Calm,Calm,-,N/A,,Clear,0,2013-02-06 08:55:00
4:15 AM,39.4,30.0,69,29.99,10.0,WSW,3.5,-,N/A,,Clear,240,2013-02-06 09:15:00
4:35 AM,37.9,29.8,73,29.99,10.0,Calm,Calm,-,N/A,,Clear,0,2013-02-06 09:35:00
4:55 AM,37.0,29.1,73,30.01,10.0,WSW,3.5,-,N/A,,Clear,240,2013-02-06 09:55:00
5:15 AM,36.9,30.4,77,30.01,10.0,Calm,Calm,-,N/A,,Clear,0,2013-02-06 10:15:00
5:35 AM,37.8,29.7,73,30.02,10.0,SW,3.5,-,N/A,,Clear,220,2013-02-06 10:35:00
5:55 AM,39.9,29.8,67,30.03,10.0,Calm,Calm,-,N/A,,Clear,0,2013-02-06 10:55:00
6:15 AM,39.6,29.7,68,30.04,10.0,West,3.5,-,N/A,,Clear,260,2013-02-06 11:15:00
6:35 AM,40.6,29.8,65,30.06,10.0,West,3.5,-,N/A,,Clear,270,2013-02-06 11:35:00
6:55 AM,39.6,30.0,69,30.07,10.0,West,4.6,-,N/A,,Clear,280,2013-02-06 11:55:00
7:15 AM,35.8,28.9,76,30.08,10.0,WSW,3.5,-,N/A,,Clear,250,2013-02-06 12:15:00
7:35 AM,37.9,30.7,75,30.09,10.0,West,3.5,-,N/A,,Clear,280,2013-02-06 12:35:00
7:55 AM,41.4,30.7,66,30.11,10.0,WNW,4.6,-,N/A,,Clear,290,2013-02-06 12:55:00
8:15 AM,43.5,31.1,62,30.12,10.0,West,5.8,-,N/A,,Clear,280,2013-02-06 13:15:00
8:35 AM,45.0,31.3,59,30.12,10.0,NW,8.1,-,N/A,,Clear,310,2013-02-06 13:35:00
8:55 AM,46.6,31.6,56,30.14,10.0,WNW,5.8,-,N/A,,Clear,300,2013-02-06 13:55:00
9:15 AM,48.2,30.6,51,30.14,10.0,NW,6.9,-,N/A,,Clear,320,2013-02-06 14:15:00
9:35 AM,49.5,29.7,47,30.14,10.0,NW,6.9,-,N/A,,Clear,310,2013-02-06 14:35:00
9:55 AM,50.7,29.5,44,30.15,10.0,NW,9.2,-,N/A,,Clear,320,2013-02-06 14:55:00
10:15 AM,50.9,28.8,43,30.15,10.0,NNW,12.7,17.3,N/A,,Clear,330,2013-02-06 15:15:00
10:35 AM,52.2,28.0,39,30.16,10.0,WNW,8.1,-,N/A,,Clear,300,2013-02-06 15:35:00
10:55 AM,52.5,28.0,39,30.16,10.0,NW,8.1,18.4,N/A,,Clear,320,2013-02-06 15:55:00
11:15 AM,52.9,27.3,37,30.17,10.0,NW,8.1,-,N/A,,Clear,320,2013-02-06 16:15:00
11:35 AM,53.8,26.6,35,30.16,10.0,NNW,4.6,-,N/A,,Clear,340,2013-02-06 16:35:00
11:55 AM,54.1,25.7,33,30.16,10.0,NNW,5.8,-,N/A,,Clear,330,2013-02-06 16:55:00
12:15 PM,55.6,25.9,32,30.16,10.0,NW,6.9,-,N/A,,Clear,320,2013-02-06 17:15:00
12:35 PM,55.9,23.9,29,30.16,10.0,West,8.1,-,N/A,,Clear,280,2013-02-06 17:35:00
12:55 PM,56.3,24.4,29,30.15,10.0,WNW,8.1,-,N/A,,Clear,300,2013-02-06 17:55:00
1:15 PM,56.7,23.7,28,30.15,10.0,West,6.9,-,N/A,,Clear,280,2013-02-06 18:15:00
1:35 PM,56.7,23.7,28,30.15,10.0,West,5.8,-,N/A,,Clear,280,2013-02-06 18:35:00
1:55 PM,56.1,24.1,29,30.14,10.0,WSW,5.8,-,N/A,,Clear,250,2013-02-06 18:55:00
2:15 PM,57.2,24.3,28,30.13,10.0,NW,8.1,-,N/A,,Clear,310,2013-02-06 19:15:00
2:35 PM,56.3,23.0,28,30.13,10.0,NW,5.8,-,N/A,,Clear,310,2013-02-06 19:35:00
2:55 PM,57.2,23.9,28,30.14,10.0,North,6.9,-,N/A,,Clear,360,2013-02-06 19:55:00
3:15 PM,56.8,22.3,26,30.14,10.0,North,8.1,-,N/A,,Clear,350,2013-02-06 20:15:00
3:35 PM,56.7,21.2,25,30.15,10.0,NW,9.2,-,N/A,,Clear,320,2013-02-06 20:35:00
3:55 PM,56.5,20.8,25,30.15,10.0,NNW,4.6,-,N/A,,Clear,330,2013-02-06 20:55:00
4:15 PM,56.5,21.2,25,30.16,10.0,NNW,4.6,-,N/A,,Clear,330,2013-02-06 21:15:00
4:35 PM,55.8,20.5,25,30.16,10.0,NNW,4.6,-,N/A,,Clear,330,2013-02-06 21:35:00
4:55 PM,54.9,20.7,26,30.17,10.0,NNW,4.6,-,N/A,,Clear,330,2013-02-06 21:55:00
5:15 PM,53.8,20.8,28,30.17,10.0,NNW,5.8,-,N/A,,Clear,330,2013-02-06 22:15:00
5:35 PM,52.7,21.6,30,30.18,10.0,North,3.5,-,N/A,,Clear,350,2013-02-06 22:35:00
5:55 PM,50.7,23.4,34,30.19,10.0,Calm,Calm,-,N/A,,Clear,0,2013-02-06 22:55:00
6:15 PM,50.5,23.0,34,30.20,10.0,Calm,Calm,-,N/A,,Clear,0,2013-02-06 23:15:00
6:35 PM,48.0,23.9,39,30.21,10.0,North,3.5,-,N/A,,Clear,10,2013-02-06 23:35:00
6:55 PM,47.5,24.1,40,30.21,10.0,North,3.5,-,N/A,,Clear,10,2013-02-06 23:55:00
7:15 PM,45.3,25.0,45,30.22,10.0,Calm,Calm,-,N/A,,Clear,0,2013-02-07 00:15:00
7:35 PM,43.2,25.5,50,30.23,10.0,Calm,Calm,-,N/A,,Clear,0,2013-02-07 00:35:00
7:55 PM,45.1,24.3,44,30.24,10.0,Calm,Calm,-,N/A,,Clear,0,2013-02-07 00:55:00
8:15 PM,41.5,25.5,53,30.24,10.0,NNE,3.5,-,N/A,,Clear,30,2013-02-07 01:15:00
8:35 PM,41.0,26.4,56,30.24,10.0,North,3.5,-,N/A,,Clear,360,2013-02-07 01:35:00
8:55 PM,42.1,24.8,50,30.25,10.0,Calm,Calm,-,N/A,,Clear,0,2013-02-07 01:55:00
9:15 PM,42.3,24.3,49,30.26,10.0,Calm,Calm,-,N/A,,Clear,0,2013-02-07 02:15:00
9:35 PM,41.5,23.9,50,30.27,10.0,Calm,Calm,-,N/A,,Clear,0,2013-02-07 02:35:00
9:55 PM,37.9,25.5,61,30.26,10.0,Calm,Calm,-,N/A,,Clear,0,2013-02-07 02:55:00
10:15 PM,38.3,25.9,61,30.25,10.0,ENE,3.5,-,N/A,,Clear,70,2013-02-07 03:15:00
10:35 PM,35.8,24.8,64,30.24,10.0,ENE,6.9,-,N/A,,Clear,70,2013-02-07 03:35:00
10:55 PM,40.6,30.2,66,30.25,10.0,East,9.2,-,N/A,,Clear,100,2013-02-07 03:55:00
11:15 PM,41.4,32.0,69,30.26,10.0,ESE,8.1,-,N/A,,Clear,110,2013-02-07 04:15:00
11:35 PM,41.2,32.4,71,30.27,10.0,ESE,8.1,-,N/A,,Clear,110,2013-02-07 04:35:00
11:55 PM,39.4,32.4,76,30.29,10.0,East,5.8,-,N/A,,Clear,90,2013-02-07 04:55:00